RH
48 44 44 44 42 39 38 37 35 36 35 38 38 34 33 31 31 35 38 40 39 33 37 45 46 44 46 46 46 48 52 53 51 53 54 53 52 47 48 48 43 43 46 46 49 52 55 53 49 51 52 49 51 52 49 45 42 43 42 40 45 45 45 47 47 47 46 43 43 39 39 40 38 40 42 41 41 41 42 43 43 43 43 42 42
52 45 44 45 43 41 40 39 37 36 36 37 37 36 36 34 31 32 35 37 37 35 38 46 48 45 45 47 47 45 47 50 51 54 56 52 45 45 50 49 44 44 44 45 48 50 54 52 47 48 51 49 47 49 46 40 39 41 43 43 43 45 47 47 44 45 44 44 45 42 43 42 41 43 42 42 43 41 40 41 44 44 42 42 41
54 47 46 45 43 43 42 41 38 37 38 37 36 36 36 36 34 32 33 32 36 37 37 43 47 45 46 48 48 46 44 49 52 52 55 53 44 43 47 45 44 46 45 47 51 53 53 52 49 47 47 46 45 47 45 40 39 40 45 47 45 44 47 44 42 46 46 44 47 47 46 44 43 42 39 42 46 43 41 41 41 42 40 41 42
57 49 47 46 42 43 43 42 41 39 39 38 36 35 34 37 36 32 32 30 34 38 35 42 47 45 47 46 47 46 42 46 50 50 52 53 48 45 44 42 45 52 51 52 54 51 47 49 51 48 43 42 44 44 44 43 42 43 46 47 47 47 46 43 43 46 45 45 49 49 48 47 44 41 37 38 41 41 43 41 38 39 40 41 43
61 52 49 48 44 43 44 43 42 40 40 38 36 34 32 36 37 33 31 30 32 34 33 39 42 42 45 45 46 46 43 44 47 49 50 51 51 49 45 43 47 54 54 54 56 49 45 47 48 47 44 42 44 45 46 48 47 49 48 46 49 50 48 45 43 44 43 45 50 50 50 51 47 43 38 39 43 44 45 41 36 39 40 40 42
63 55 51 50 47 45 45 44 43 41 41 39 37 35 32 33 36 33 31 31 31 30 29 34 35 35 40 42 44 45 44 43 45 50 51 50 53 51 49 49 50 55 55 53 56 50 45 45 44 48 48 43 45 48 48 47 48 49 47 47 49 49 49 47 43 42 41 42 47 48 50 51 49 46 40 40 45 45 44 40 35 37 40 39 40
62 59 55 53 50 47 47 47 45 43 42 41 38 37 34 33 34 32 31 32 31 28 26 30 33 33 37 40 43 44 43 43 44 50 51 49 53 53 52 53 51 55 56 53 53 49 45 45 44 49 52 47 44 46 46 47 50 49 47 49 51 47 45 48 46 44 40 40 44 45 47 47 48 47 40 38 41 39 42 46 39 36 39 37 36
62 63 60 60 56 50 50 51 49 45 44 42 40 38 36 35 33 29 31 35 34 29 24 27 33 34 36 41 45 43 41 43 43 46 50 50 53 53 53 54 51 52 58 54 48 46 44 45 45 49 53 51 46 46 48 50 51 47 43 45 45 41 41 46 49 47 45 44 44 46 46 44 45 45 41 38 39 37 40 46 41 38 40 37 35
65 66 65 64 63 56 54 54 52 49 47 44 43 40 38 38 35 28 27 32 36 31 25 27 32 33 36 41 46 44 43 44 42 43 48 50 52 53 53 56 54 50 53 51 46 46 44 43 44 47 51 50 46 48 49 48 47 41 38 38 37 38 40 43 45 48 50 47 46 47 47 45 42 41 41 40 40 37 38 41 37 36 40 36 34
69 67 65 63 63 61 57 56 55 53 53 53 49 44 43 42 38 30 25 28 32 31 29 29 31 32 35 40 45 46 45 45 43 42 45 48 51 51 50 54 56 51 50 47 43 44 43 42 45 48 52 51 47 49 48 45 42 38 38 40 38 39 39 39 43 48 53 50 46 47 48 47 42 39 42 42 40 38 38 42 39 37 40 36 34
69 67 66 64 64 63 61 59 58 55 57 61 56 50 49 46 40 34 29 29 29 29 29 31 32 33 33 36 41 44 47 47 45 43 43 44 47 50 49 50 54 54 52 48 45 46 43 42 47 49 53 55 50 48 48 45 43 42 43 41 38 38 37 39 44 48 51 49 45 45 48 47 42 41 43 43 41 39 38 43 42 39 41 38 33
71 72 71 69 67 65 63 62 61 59 60 62 60 58 57 52 46 39 34 32 30 28 30 31 33 33 33 35 37 40 44 46 45 44 42 41 43 49 49 49 51 54 53 52 52 50 44 40 46 49 50 53 49 46 50 49 48 49 47 43 40 39 39 40 45 48 47 46 45 45 48 46 42 42 42 40 42 42 40 42 38 34 38 37 33
70 73 71 71 70 67 66 64 61 62 61 59 61 62 60 57 50 43 37 34 31 29 30 31 32 32 33 35 35 36 40 43 44 42 41 41 43 48 50 48 49 49 52 56 56 52 45 39 42 45 44 46 46 45 48 48 48 51 47 44 44 41 41 41 44 47 46 46 48 48 48 46 42 43 44 41 41 41 40 41 37 34 39 39 34
66 69 70 71 70 68 68 65 61 58 56 56 57 59 59 58 52 46 41 37 34 32 31 31 32 32 33 34 35 35 36 39 41 43 42 42 44 48 50 48 47 47 49 54 54 51 48 42 38 40 40 40 41 41 43 42 45 51 47 46 49 45 43 43 43 46 45 47 50 50 50 48 44 43 43 42 42 41 40 41 38 36 40 41 35
63 66 70 71 71 72 71 67 63 59 57 56 55 55 58 59 54 49 46 42 38 35 33 32 32 32 33 33 34 34 35 37 40 42 44 43 45 48 49 49 49 48 48 49 50 49 49 44 36 37 38 38 39 39 40 40 41 45 46 48 53 48 41 43 46 47 45 45 49 50 52 50 45 44 44 42 43 43 42 42 39 36 39 41 35
63 66 68 68 69 71 72 70 66 62 60 59 58 57 58 60 58 52 49 47 43 40 37 35 33 33 34 33 34 34 35 37 38 39 44 45 46 48 49 50 51 50 47 47 49 47 47 44 37 36 36 36 37 36 38 41 39 42 44 43 48 48 41 41 46 47 43 42 45 47 50 50 46 45 47 45 43 43 43 43 39 35 38 42 39
64 65 66 66 65 68 74 77 72 67 63 60 61 59 57 59 57 53 51 50 47 44 40 38 35 34 35 34 34 34 33 37 39 39 43 45 46 48 49 48 48 48 46 45 45 44 44 43 40 38 36 34 36 34 36 39 38 43 47 41 42 48 45 40 43 47 44 40 40 40 44 48 46 44 47 46 42 40 40 42 40 36 36 40 40
64 66 67 67 67 71 76 78 75 72 70 66 63 61 60 59 57 55 53 49 48 46 43 44 39 33 34 34 34 35 34 38 41 41 43 44 44 46 48 48 46 45 46 45 45 43 42 40 38 39 38 35 36 35 35 35 35 43 49 42 40 45 46 41 39 44 46 43 42 41 41 44 44 42 43 44 42 39 39 41 40 37 36 38 40
66 69 69 69 70 72 73 74 73 75 78 74 68 66 65 62 60 61 59 56 55 49 45 50 46 36 35 34 32 34 34 36 39 39 42 43 44 45 45 47 47 44 44 44 43 43 41 37 33 36 38 36 34 34 35 33 33 40 46 44 42 41 40 41 40 43 46 44 43 42 41 41 42 41 41 42 42 41 42 42 42 40 36 35 37
66 70 68 67 69 68 69 70 70 75 80 78 73 70 67 64 64 67 67 65 64 56 50 53 50 42 39 35 31 32 33 34 35 35 37 40 41 44 44 44 45 45 44 41 40 41 41 38 33 33 37 38 35 35 37 36 32 34 40 44 46 42 37 38 42 44 45 43 41 40 38 39 40 40 41 41 40 40 40 41 41 40 38 36 34
67 70 68 68 68 64 64 66 68 72 79 79 76 71 68 69 70 69 68 66 63 59 57 56 52 45 41 38 34 31 30 33 34 33 33 35 37 40 42 43 43 44 44 42 40 39 40 39 37 36 36 37 38 37 39 40 34 31 33 37 43 43 39 37 39 41 43 43 41 37 35 36 37 38 40 40 39 38 39 38 38 40 39 38 36
64 67 68 69 67 63 63 64 65 71 76 79 79 74 73 75 72 69 68 66 62 59 58 56 54 50 45 43 40 35 32 33 34 34 33 31 33 35 38 40 41 41 43 43 41 39 38 38 38 38 36 37 38 36 36 38 38 35 32 34 39 40 37 35 35 35 38 40 40 37 34 34 35 35 37 38 38 38 37 37 37 38 38 39 38
60 63 65 67 66 64 64 64 65 69 73 76 77 76 79 79 73 71 69 65 62 59 58 59 59 55 49 47 46 42 39 37 37 38 36 32 32 33 34 35 37 39 40 40 41 40 38 37 35 36 38 37 37 36 34 36 38 37 34 35 39 40 37 35 34 34 34 36 38 37 36 36 36 36 36 36 37 36 35 36 37 38 37 37 37
58 61 62 66 68 67 67 68 68 68 69 74 76 77 82 81 77 76 74 68 64 61 61 63 63 57 50 48 48 45 41 41 42 40 36 34 34 34 34 33 33 35 37 37 38 38 39 38 34 33 36 36 36 36 36 35 36 36 34 35 38 40 40 38 37 37 37 38 39 38 38 38 37 38 38 37 36 35 35 35 36 36 35 35 34
58 61 61 66 70 70 70 71 72 70 67 71 76 76 80 83 81 79 77 73 71 67 63 65 67 63 54 48 49 48 43 44 47 44 36 33 32 32 33 34 33 34 34 35 36 35 36 37 36 33 33 33 32 33 33 33 35 35 34 35 37 38 38 36 35 34 35 36 37 38 40 40 39 39 39 37 36 36 36 34 34 33 33 34 34
56 60 62 65 69 71 71 70 71 70 69 70 72 72 77 82 83 80 77 74 74 72 68 65 66 63 57 53 53 52 47 44 47 47 40 34 32 31 31 33 35 33 32 31 32 33 32 31 31 31 31 30 28 28 28 27 31 35 35 36 38 38 37 34 32 30 29 29 30 32 34 35 37 38 37 37 37 37 37 37 36 35 34 34 34
51 55 60 66 68 69 69 69 70 71 71 71 71 72 74 78 81 81 78 75 75 75 71 68 66 62 60 59 58 57 51 43 45 51 46 37 33 32 31 32 34 34 33 30 29 31 31 27 24 24 27 29 26 25 24 22 24 30 33 34 35 37 38 35 32 31 30 29 28 29 30 30 31 33 33 35 36 36 36 36 37 37 37 37 36
47 50 54 60 65 67 66 67 68 69 70 71 70 71 71 73 76 78 78 76 74 74 73 70 68 66 63 61 59 59 57 51 52 55 49 39 35 37 36 34 34 34 33 31 28 29 30 28 24 21 22 26 26 24 22 20 19 22 27 31 33 34 35 35 33 31 31 30 29 29 29 29 29 29 29 30 32 35 36 37 37 37 38 39 38
44 46 48 51 56 60 62 64 66 66 68 69 69 69 69 69 72 74 75 75 73 74 74 72 71 70 68 65 62 60 59 57 57 53 46 40 38 39 39 37 37 36 34 33 31 28 27 28 27 24 21 23 25 25 23 21 19 19 22 26 29 31 32 33 32 31 31 30 29 29 28 27 28 28 28 27 27 29 31 33 36 38 39 38 36
47 48 49 49 51 54 55 57 59 60 63 65 66 68 68 69 71 71 72 73 73 73 75 75 74 74 73 71 69 65 60 58 57 51 45 44 43 41 41 41 40 38 37 37 35 30 26 27 27 26 23 22 22 23 23 20 18 18 20 22 25 27 29 30 30 30 29 29 29 29 28 27 26 27 27 26 22 22 23 23 27 30 32 32 31
50 51 51 51 52 52 51 50 51 52 54 58 61 64 66 69 71 72 70 71 73 74 76 77 76 76 77 76 72 68 64 61 59 54 49 48 48 43 41 41 41 41 40 38 35 33 29 26 26 27 26 24 22 20 20 18 16 16 18 20 23 24 25 26 27 27 25 25 27 27 27 27 27 27 27 24 21 20 20 19 20 22 23 24 25
50 52 51 51 51 52 51 50 50 50 50 51 54 57 61 64 69 72 72 71 73 75 75 77 79 79 79 78 74 69 67 64 62 57 53 55 58 53 45 42 41 41 42 40 37 36 33 29 28 28 27 25 23 21 20 18 16 13 14 17 21 24 25 24 25 25 24 23 24 24 25 25 25 26 26 25 22 20 19 19 19 19 19 19 20
48 49 51 51 51 51 51 51 51 51 51 50 50 50 53 57 62 68 71 72 73 75 75 78 80 80 79 80 79 75 74 71 67 64 59 58 60 60 57 53 47 42 42 42 40 38 35 32 30 29 28 27 24 23 22 20 18 14 13 13 15 18 21 22 23 24 24 24 23 24 24 23 23 24 24 25 25 21 18 18 18 18 17 17 17
43 46 48 49 50 50 49 49 49 49 48 49 48 48 48 50 56 62 65 69 73 77 78 79 81 82 81 81 82 81 80 78 74 72 69 64 59 58 60 62 61 54 46 42 41 41 38 36 33 30 29 28 27 25 24 22 21 17 13 12 13 13 15 17 19 21 22 24 24 24 24 22 21 21 20 22 24 21 18 16 16 16 15 14 14
40 41 43 44 46 47 46 46 47 48 46 45 44 45 47 47 51 57 60 63 69 75 78 79 80 82 83 82 82 82 82 81 79 77 75 73 69 64 62 65 71 70 60 52 47 44 41 38 36 34 32 31 29 28 26 24 23 21 17 14 13 13 12 13 14 16 17 19 21 23 24 22 19 18 17 18 19 18 17 15 14 14 14 13 12
38 38 39 40 41 42 41 41 43 45 45 43 40 41 44 45 48 53 54 57 64 70 74 76 77 79 82 84 83 81 81 83 83 81 78 77 76 73 68 67 69 71 71 67 60 54 50 45 39 36 35 33 31 31 29 27 25 25 23 21 18 16 14 13 13 13 13 14 15 17 19 19 18 17 16 15 16 16 16 16 15 14 13 14 14
37 36 36 37 37 37 36 36 37 38 40 40 39 39 41 43 45 47 49 54 61 67 69 70 72 76 79 82 83 83 83 83 83 82 81 81 80 76 70 66 65 65 66 66 61 58 56 52 46 41 36 34 33 32 31 29 28 27 27 26 25 22 19 16 14 13 12 12 12 12 13 13 14 15 15 15 15 15 15 15 16 15 15 17 18
37 35 34 35 35 33 32 32 32 32 33 33 35 37 40 44 45 44 46 50 56 63 64 64 66 69 71 74 79 82 84 84 83 83 83 84 82 77 71 67 67 65 62 60 57 54 53 55 54 48 39 34 32 32 32 31 30 30 29 28 27 27 25 22 18 16 14 13 12 11 11 11 11 12 13 14 14 15 15 15 16 16 16 15 16
36 35 34 35 35 32 32 31 30 29 30 29 29 32 34 37 40 41 46 50 53 57 57 56 59 63 65 69 74 77 80 82 83 83 84 83 81 79 76 74 72 70 66 63 62 60 57 57 59 58 51 42 37 34 32 31 30 29 30 29 28 28 27 25 23 20 19 18 15 13 13 12 12 12 13 15 16 16 17 17 17 18 18 16 16
34 33 34 35 35 33 32 31 30 30 31 29 28 29 30 30 30 32 38 44 49 50 48 49 53 56 59 64 68 72 75 75 76 79 82 82 79 79 81 80 75 73 71 69 67 65 61 56 56 59 60 56 50 43 37 33 32 30 29 30 29 28 27 26 25 25 24 23 21 19 17 16 16 16 17 19 20 20 21 20 20 20 19 18 19
34 33 32 32 32 32 31 31 31 31 31 30 30 31 30 29 26 24 28 33 37 38 39 42 46 49 52 56 60 65 69 70 70 73 75 77 77 76 77 79 76 75 75 73 70 67 66 62 57 53 53 55 55 52 45 40 37 33 31 31 30 29 27 27 27 27 27 27 26 25 24 23 21 21 22 24 24 25 25 25 24 21 19 19 21
34 32 31 30 30 30 30 30 30 30 30 30 30 31 32 31 27 25 25 26 26 29 31 35 38 41 45 49 51 55 59 63 68 69 68 70 72 73 75 75 75 74 75 76 75 72 69 68 65 59 53 51 51 53 52 48 42 38 36 34 33 31 30 30 30 29 28 29 29 29 30 29 28 27 27 28 28 28 28 27 25 22 21 21 22
33 31 31 30 30 30 28 26 27 28 28 29 30 30 30 29 27 26 24 24 23 24 27 30 32 34 37 40 44 47 49 53 60 66 67 65 65 67 72 73 73 73 73 72 74 75 73 73 71 67 63 58 54 52 52 50 45 42 40 38 37 36 34 33 32 31 32 32 33 33 33 32 31 30 30 30 30 30 29 28 26 24 24 23 23
32 31 30 30 31 31 29 26 24 25 26 28 28 28 26 25 25 25 25 24 24 23 24 27 30 31 33 34 36 39 41 43 48 53 59 62 63 65 70 71 71 72 75 73 71 72 74 75 73 71 71 69 64 59 56 53 50 47 43 42 42 41 40 38 36 34 34 35 36 36 35 34 33 31 31 32 31 31 30 29 28 27 26 25 24
32 32 32 32 32 32 31 29 25 22 23 24 25 26 27 26 25 25 24 23 23 23 24 26 27 29 31 32 34 34 36 39 41 43 48 53 56 60 65 68 68 70 74 77 76 74 73 72 73 74 77 76 72 69 65 60 56 52 48 45 45 46 45 44 40 37 36 37 37 36 35 35 34 33 33 33 32 31 30 30 29 29 28 27 25
30 31 32 32 32 31 32 32 29 24 22 24 25 27 27 24 23 21 20 20 21 22 23 24 25 26 28 30 32 33 34 36 38 38 40 41 44 48 54 61 68 73 75 76 77 78 76 74 73 76 80 81 78 76 73 67 61 57 53 49 48 51 53 52 48 44 40 38 38 37 37 36 35 34 33 33 33 32 31 31 31 30 30 28 27
26 28 28 30 31 31 31 32 30 27 24 23 23 23 22 20 19 19 19 19 19 20 22 22 23 25 28 29 31 33 35 36 36 37 39 41 44 48 52 55 63 72 78 79 79 78 78 77 76 76 77 78 76 73 74 73 70 66 62 57 54 53 56 57 55 50 44 41 41 41 41 40 37 35 34 33 33 33 32 32 31 31 31 30 30
24 24 25 27 27 28 29 29 29 28 26 22 19 16 17 17 17 18 18 18 17 17 18 18 20 24 28 31 34 36 36 37 37 38 41 44 46 49 51 54 56 61 69 76 79 78 77 77 77 76 75 74 71 69 70 75 77 76 72 68 63 59 58 59 58 54 48 44 44 43 41 39 38 37 34 33 33 33 33 33 34 34 35 36 37
22 22 23 24 24 26 26 27 28 28 28 25 20 15 13 13 15 17 19 22 22 20 18 17 18 22 25 30 33 35 36 37 36 36 38 44 47 47 46 47 48 49 53 60 67 71 73 74 74 74 73 71 70 70 70 74 79 81 78 74 70 67 64 61 58 55 51 46 47 49 47 41 37 38 38 36 36 36 35 36 37 39 42 42 42
21 22 22 23 23 24 25 25 26 27 27 28 26 22 19 17 18 20 22 25 27 27 24 20 19 20 24 28 30 32 34 35 37 36 36 36 39 41 40 38 38 39 40 43 47 54 60 64 65 66 67 67 66 68 70 73 76 80 81 78 73 68 65 62 59 56 54 53 55 56 50 41 37 39 42 42 41 42 43 45 47 48 47 46 45
22 22 23 23 23 23 24 24 25 25 25 26 27 27 26 25 25 26 26 27 29 29 28 26 23 23 24 26 27 28 30 32 35 37 36 32 29 31 34 35 34 35 35 35 37 41 47 53 55 56 58 60 61 62 66 70 75 80 83 81 76 70 67 65 63 60 58 60 62 58 49 44 46 48 48 49 50 52 53 55 56 55 50 47 46